sat.trackr.live / text

‹ back to catalog

SPIRIT

NORAD 58468 · 2023-185G

PAYLOAD ACTIVE UNKNOWN

§ Identity

Operator
Country
AUS
Launch date
2023-12-01
Launch site
AFWTR
Launch vehicle
Mass (kg)
RCS (m²)

External: N2YO · Heavens-Above · Gunter

§ Orbital elements

Epoch: 2026-05-24T13:02:13.916832Z

Period
91.34 min
Inclination
97.3295°
Eccentricity
0.0004915
Mean motion
15.76598859 rev/d
Perigee alt
336.8 km
Apogee alt
343.4 km
Semi-major
6,718.2 km
B*
7.7189e-4
RAAN
228.0597°
Arg perigee
233.9624°
Mean anomaly
126.1186°
Rev number
13,884

§ Raw data

SPIRIT1 58468U 23185G   26144.54321663  .00124146  00000+0  77189-3 0  99992 58468  97.3295 228.0597 0004915 233.9624 126.1186 15.76598859138841

JSON: /api/v1/satellites/58468 · /tle

For live sub-satellite position, see the globe view (requires WebGL).

§ Visibility from observer

Set your observer location to see the next 7 days of passes ≥ 10°. The values pass through the URL so the page stays shareable.

No JS? Fill the form by hand. The geolocation button needs JavaScript.

§ Radio — SatNOGS DB

ModeDescriptionDownlinkUplink
FSK Mode U - FSK9k6 Beacon 401.895 MHz

1 transmitter · refreshed weekly from db.satnogs.org